FW9794 Weather Reports


time (UTC)temp
C
wind
direction
speed
KPH
gust
KPH
rain 1hr
cm
rain 24hr
cm
rain mn
cm
humidity
%
barometer
mb
20260506050549 20 360 0.0 4.8 0.00 0.00 0.00 54 1009.8
20260506045048 20 360 0.0 4.8 0.00 0.00 0.00 54 1009.7
20260506044553 20 0 0.0 4.8 0.00 0.00 0.00 53 1009.7
20260506044048 20 0 0.0 6.4 0.00 0.00 0.00 53 1009.6
20260506043548 20 360 1.6 9.7 0.00 0.00 0.00 54 1009.7
20260506043052 20 0 1.6 14.5 0.00 0.00 0.00 54 1009.7
20260506042550 20 360 6.4 14.5 0.00 0.00 0.00 54 1009.8
20260506042051 20 360 1.6 6.4 0.00 0.00 0.00 55 1009.7
20260506041604 20 0 0.0 4.8 0.00 0.00 0.00 54 1009.5
20260506041048 20 360 1.6 4.8 0.00 0.00 0.00 54 1009.8
20260506040548 20 360 0.0 3.2 0.00 0.00 0.00 54 1009.7
20260506040059 20 0 0.0 6.4 0.00 0.00 0.00 53 1009.6
20260506035548 20 360 0.0 6.4 0.00 0.00 0.00 53 1009.5
20260506035048 20 360 3.2 9.7 0.00 0.00 0.00 52 1009.7
20260506034557 20 360 4.8 9.7 0.00 0.00 0.00 52 1009.8
20260506034048 20 360 6.4 9.7 0.00 0.00 0.00 53 1009.8
20260506033548 20 360 3.2 9.7 0.00 0.00 0.00 51 1009.8
20260506033051 20 360 6.4 9.7 0.00 0.00 0.00 51 1009.9
20260506032551 20 360 4.8 8.0 0.00 0.00 0.00 50 1010.1
20260506032048 20 0 1.6 9.7 0.00 0.00 0.00 50 1009.8
20260506031555 20 360 4.8 12.9 0.00 0.00 0.00 50 1009.9
20260506031048 20 360 6.4 12.9 0.00 0.00 0.00 49 1009.9
20260506030549 20 360 6.4 9.7 0.00 0.00 0.00 51 1010.2
20260506030053 20 360 1.6 6.4 0.00 0.00 0.00 51 1010.1
20260506025547 20 360 1.6 12.9 0.00 0.00 0.00 50 1010.2
20260506025051 20 360 4.8 12.9 0.00 0.00 0.00 50 1010.3
20260506024553 20 360 1.6 4.8 0.00 0.00 0.00 49 1010.2
20260506024048 20 360 0.0 4.8 0.00 0.00 0.00 49 1009.9
20260506023550 21 360 0.0 6.4 0.00 0.00 0.00 49 1010.1
20260506023103 20 360 0.0 6.4 0.00 0.00 0.00 49 1010.2
20260506022548 20 360 1.6 6.4 0.00 0.00 0.00 49 1010.3
20260506022048 20 0 1.6 6.4 0.00 0.00 0.00 49 1010.4
20260506021609 20 360 1.6 6.4 0.00 0.00 0.00 49 1010.2
20260506021049 20 360 1.6 4.8 0.00 0.00 0.00 49 1010.2
20260506020548 20 360 0.0 6.4 0.00 0.00 0.00 48 1010.2
20260506020052 20 360 0.0 14.5 0.00 0.00 0.00 48 1010.1
20260506015548 20 360 1.6 14.5 0.00 0.00 0.00 48 1010.0
20260506015051 20 360 1.6 14.5 0.00 0.00 0.00 48 1009.9
20260506014553 20 0 1.6 9.7 0.00 0.00 0.00 48 1009.8
20260506014050 20 360 1.6 9.7 0.00 0.00 0.00 48 1009.5
20260506013549 21 360 0.0 4.8 0.00 0.00 0.00 48 1009.4
20260506013100 21 0 0.0 4.8 0.00 0.00 0.00 48 1009.4
20260506012551 21 0 0.0 4.8 0.00 0.00 0.00 47 1009.4
20260506012050 21 360 0.0 4.8 0.00 0.00 0.00 47 1009.4
20260506011611 21 360 0.0 4.8 0.00 0.00 0.00 47 1009.5
20260506011049 21 360 0.0 4.8 0.00 0.00 0.00 47 1009.5
20260506010548 21 0 1.6 3.2 0.00 0.00 0.00 48 1009.3
20260506010058 22 360 0.0 3.2 0.00 0.00 0.00 47 1009.6
20260506005551 22 0 0.0 4.8 0.00 0.00 0.00 47 1009.7
20260506005048 22 0 0.0 4.8 0.00 0.00 0.00 46 1009.7
20260506004550 22 0 0.0 6.4 0.00 0.00 0.00 47 1009.8
20260506004048 22 360 1.6 6.4 0.00 0.00 0.00 46 1009.9
20260506003549 22 0 1.6 8.0 0.00 0.00 0.00 46 1009.9
20260506003054 22 360 1.6 8.0 0.00 0.00 0.00 45 1009.8
20260506002548 22 360 1.6 8.0 0.00 0.00 0.00 45 1009.8
20260506002049 23 0 1.6 4.8 0.00 0.00 0.00 44 1009.7
20260506001557 23 360 1.6 9.7 0.00 0.00 0.00 44 1009.8
20260506001049 23 360 1.6 12.9 0.00 0.00 0.00 43 1009.8
20260506000549 23 360 1.6 12.9 0.00 0.00 0.00 43 1009.7
20260506000055 23 360 3.2 12.9 0.00 0.00 0.00 43 1009.7
20260505235548 23 360 1.6 4.8 0.00 0.00 0.00 43 1009.8
20260505235048 24 360 0.0 6.4 0.00 0.00 0.00 43 1009.6
20260505234552 24 360 0.0 6.4 0.00 0.00 0.00 43 1009.5
20260505234049 25 360 1.6 8.0 0.00 0.00 0.00 43 1009.6
20260505233549 25 0 0.0 9.7 0.00 0.00 0.00 43 1009.5
20260505233051 25 203 1.6 12.9 0.00 0.00 0.00 42 1009.5
20260505232548 25 194 3.2 12.9 0.00 0.00 0.00 42 1009.4
20260505232051 25 360 1.6 8.0 0.00 0.00 0.00 41 1009.4
20260505231609 25 115 1.6 11.3 0.00 0.00 0.00 41 1009.4
20260505231047 25 137 3.2 11.3 0.00 0.00 0.00 41 1009.4
20260505230545 25 206 3.2 9.7 0.00 0.00 0.00 41 1009.5
20260505230052 25 360 1.6 12.9 0.00 0.00 0.00 41 1009.7
20260505225546 25 360 1.6 12.9 0.00 0.00 0.00 40 1009.6
20260505225046 25 360 3.2 12.9 0.00 0.00 0.00 41 1009.6
20260505224554 25 360 1.6 12.9 0.00 0.00 0.00 41 1009.6
20260505224047 25 360 3.2 9.7 0.00 0.00 0.00 40 1009.7
20260505223545 25 360 3.2 12.9 0.00 0.00 0.00 41 1009.7
20260505223057 25 360 3.2 12.9 0.00 0.00 0.00 42 1009.8
20260505222547 25 360 3.2 9.7 0.00 0.00 0.00 41 1009.7
20260505222047 26 360 3.2 9.7 0.00 0.00 0.00 41 1009.8
20260505221553 26 360 3.2 9.7 0.00 0.00 0.00 41 1009.8
20260505221047 25 360 3.2 8.0 0.00 0.00 0.00 41 1009.8
20260505220547 25 360 1.6 17.7 0.00 0.00 0.00 39 1009.8
20260505220054 25 360 4.8 17.7 0.00 0.00 0.00 40 1009.8
20260505215548 25 0 1.6 16.1 0.00 0.00 0.00 41 1009.8
20260505215048 25 360 3.2 19.3 0.00 0.00 0.00 39 1010.0
20260505214557 25 360 4.8 19.3 0.00 0.00 0.00 39 1009.8
20260505214048 25 360 3.2 12.9 0.00 0.00 0.00 40 1010.1
20260505213545 25 360 3.2 12.9 0.00 0.00 0.00 41 1009.9
20260505213053 25 0 3.2 12.9 0.00 0.00 0.00 41 1010.1
20260505212547 25 360 4.8 14.5 0.00 0.00 0.00 40 1009.9
20260505212048 25 0 3.2 14.5 0.00 0.00 0.00 41 1009.8
20260505211556 25 360 3.2 14.5 0.00 0.00 0.00 40 1009.8
20260505211046 25 360 3.2 14.5 0.00 0.00 0.00 40 1010.1
20260505210547 25 360 4.8 14.5 0.00 0.00 0.00 40 1010.2
20260505210051 25 360 3.2 9.7 0.00 0.00 0.00 41 1010.1
20260505205558 25 360 1.6 27.4 0.00 0.00 0.00 40 1010.2
20260505205048 26 303 4.8 27.4 0.00 0.00 0.00 40 1010.2
20260505204555 26 286 3.2 19.3 0.00 0.00 0.00 38 1010.2
20260505204048 26 259 8.0 20.9 0.00 0.00 0.00 39 1010.4
20260505203548 26 217 4.8 20.9 0.00 0.00 0.00 38 1010.5
20260505203119 26 249 6.4 17.7 0.00 0.00 0.00 38 1010.5
20260505202548 26 248 3.2 20.9 0.00 0.00 0.00 40 1010.6
20260505202046 26 224 4.8 20.9 0.00 0.00 0.00 40 1010.6
20260505201603 26 305 4.8 12.9 0.00 0.00 0.00 38 1010.7
20260505201050 26 231 3.2 16.1 0.00 0.00 0.00 37 1010.6
20260505200546 25 360 4.8 17.7 0.00 0.00 0.00 39 1010.7
20260505200059 25 360 4.8 17.7 0.00 0.00 0.00 40 1010.9
20260505195553 25 360 3.2 14.5 0.00 0.00 0.00 41 1010.8
20260505195049 25 360 1.6 19.3 0.00 0.00 0.00 41 1010.9
20260505194555 25 360 8.0 19.3 0.00 0.00 0.00 40 1011.0
20260505194049 25 360 6.4 19.3 0.00 0.00 0.00 39 1011.2
20260505193549 25 360 6.4 16.1 0.00 0.00 0.00 40 1011.4
20260505193057 26 360 4.8 14.5 0.00 0.00 0.00 39 1011.4
20260505192552 26 341 3.2 25.7 0.00 0.00 0.00 41 1011.5
20260505192049 26 269 4.8 25.7 0.00 0.00 0.00 42 1011.5
20260505191603 26 360 6.4 25.7 0.00 0.00 0.00 42 1011.5
20260505191048 26 262 1.6 22.5 0.00 0.00 0.00 44 1011.5
20260505190548 26 360 4.8 22.5 0.00 0.00 0.00 43 1011.6
20260505190053 26 230 8.0 22.5 0.00 0.00 0.00 42 1011.9
20260505185548 26 360 3.2 20.9 0.00 0.00 0.00 45 1012.0
20260505185050 26 248 8.0 27.4 0.00 0.00 0.00 45 1012.0
20260505184552 26 150 9.7 27.4 0.00 0.00 0.00 46 1012.2
20260505184052 26 200 9.7 24.1 0.00 0.00 0.00 47 1012.3
20260505183548 26 213 4.8 17.7 0.00 0.00 0.00 45 1012.4
20260505183102 26 205 4.8 19.3 0.00 0.00 0.00 45 1012.4
20260505182550 26 0 6.4 19.3 0.00 0.00 0.00 44 1012.4
20260505182049 26 260 4.8 16.1 0.00 0.00 0.00 45 1012.6
20260505181603 26 278 3.2 12.9 0.00 0.00 0.00 44 1012.6
20260505181048 26 204 3.2 22.5 0.00 0.00 0.00 44 1012.7
20260505180547 26 276 3.2 22.5 0.00 0.00 0.00 44 1012.6
20260505180104 26 257 6.4 22.5 0.00 0.00 0.00 42 1012.9
20260505175548 26 205 6.4 25.7 0.00 0.00 0.00 41 1012.9
20260505175048 26 360 6.4 25.7 0.00 0.00 0.00 41 1013.0
20260505174555 26 360 6.4 25.7 0.00 0.00 0.00 42 1013.0
20260505174047 26 360 4.8 17.7 0.00 0.00 0.00 44 1013.1
20260505173549 26 360 4.8 16.1 0.00 0.00 0.00 43 1013.1
20260505173057 25 360 6.4 22.5 0.00 0.00 0.00 45 1012.9
20260505172548 25 360 3.2 22.5 0.00 0.00 0.00 46 1013.2
20260505172047 25 360 11.3 25.7 0.00 0.00 0.00 42 1013.3
20260505171554 25 360 4.8 25.7 0.00 0.00 0.00 42 1013.4
20260505171046 25 360 9.7 25.7 0.00 0.00 0.00 42 1013.5
20260505170549 26 360 9.7 24.1 0.00 0.00 0.00 42 1013.4
20260505170109 26 234 6.4 20.9 0.00 0.00 0.00 43 1013.5
20260505165549 25 146 3.2 24.1 0.00 0.00 0.00 43 1013.7
20260505165052 25 360 9.7 24.1 0.00 0.00 0.00 44 1013.8
20260505164556 25 360 6.4 24.1 0.00 0.00 0.00 44 1014.0
20260505164048 25 360 6.4 22.5 0.00 0.00 0.00 43 1014.0
20260505163548 25 360 8.0 22.5 0.00 0.00 0.00 44 1014.0
20260505163053 25 360 4.8 17.7 0.00 0.00 0.00 43 1014.1
20260505162547 26 224 6.4 22.5 0.00 0.00 0.00 42 1014.1
20260505162049 26 250 6.4 22.5 0.00 0.00 0.00 44 1014.1
20260505161616 26 265 6.4 25.7 0.00 0.00 0.00 43 1014.1
20260505161049 25 360 8.0 25.7 0.00 0.00 0.00 45 1014.0
20260505160546 25 360 4.8 20.9 0.00 0.00 0.00 47 1013.9
20260505153103 25 263 3.2 14.5 0.00 0.00 0.00 45 1013.7
20260505152548 25 261 3.2 14.5 0.00 0.00 0.00 47 1013.8
20260505152048 25 204 3.2 14.5 0.00 0.00 0.00 49 1013.8
20260505151605 24 0 1.6 11.3 0.00 0.00 0.00 49 1013.8
20260505151051 24 194 3.2 12.9 0.00 0.00 0.00 50 1013.9
20260505150549 24 201 1.6 12.9 0.00 0.00 0.00 49 1013.9
20260505140548 18 360 0.0 4.8 0.00 0.00 0.00 70 1014.1
20260505124556 13 0 0.0 0.0 0.00 0.00 0.00 88 1013.8
20260505124049 12 0 0.0 1.6 0.00 0.00 0.00 90 1013.8
20260505123549 12 0 0.0 1.6 0.00 0.00 0.00 90 1013.6
20260505123105 12 0 0.0 1.6 0.00 0.00 0.00 91 1013.6
20260505122549 12 0 0.0 3.2 0.00 0.00 0.00 92 1013.5
20260505122050 11 360 0.0 3.2 0.00 0.00 0.00 92 1013.5
20260505121613 11 360 1.6 3.2 0.00 0.00 0.00 91 1013.5
20260505121049 10 0 0.0 1.6 0.00 0.00 0.00 91 1013.4
20260505120545 10 0 0.0 1.6 0.00 0.00 0.00 92 1013.6
20260505120056 10 0 0.0 1.6 0.00 0.00 0.00 93 1013.6
20260505115551 10 0 0.0 1.6 0.00 0.00 0.00 92 1013.5
20260505115050 9 0 0.0 1.6 0.00 0.00 0.00 93 1013.5
20260505114557 9 0 0.0 3.2 0.00 0.00 0.00 92 1013.3
20260505114046 9 0 0.0 3.2 0.00 0.00 0.00 92 1013.3
20260505113552 8 0 0.0 4.8 0.00 0.00 0.00 93 1013.4
20260505113050 8 0 0.0 4.8 0.00 0.00 0.00 93 1013.2
20260505112547 8 360 1.6 3.2 0.00 0.00 0.00 93 1013.3
20260505112047 8 0 0.0 3.2 0.00 0.00 0.00 93 1013.0
20260505111552 8 350 0.0 3.2 0.00 0.00 0.00 92 1013.0
20260505111048 8 350 0.0 1.6 0.00 0.00 0.00 92 1012.9
20260505110548 8 0 0.0 1.6 0.00 0.00 0.00 91 1012.7
20260505102048 8 0 0.0 0.0 0.00 0.00 0.00 90 1012.8
20260505101556 8 0 0.0 0.0 0.00 0.00 0.00 90 1012.8
20260505101048 9 0 0.0 0.0 0.00 0.00 0.00 88 1012.7
20260505100547 9 0 0.0 0.0 0.00 0.00 0.00 88 1012.7
20260505100055 9 0 0.0 0.0 0.00 0.00 0.00 88 1012.7
20260505095549 9 0 0.0 0.0 0.00 0.00 0.00 88 1012.6
20260505095046 10 0 0.0 0.0 0.00 0.00 0.00 89 1012.8
20260505094552 10 0 0.0 0.0 0.00 0.00 0.00 88 1012.7
20260505094048 10 0 0.0 1.6 0.00 0.00 0.00 88 1012.7
20260505093548 10 0 0.0 1.6 0.00 0.00 0.00 88 1012.8
20260505093050 10 0 0.0 1.6 0.00 0.00 0.00 88 1012.8
20260505092547 10 0 0.0 0.0 0.00 0.00 0.00 88 1012.8
20260505092048 10 0 0.0 0.0 0.00 0.00 0.00 87 1012.8
20260505091550 10 0 0.0 0.0 0.00 0.00 0.00 87 1012.8
20260505091048 10 0 0.0 1.6 0.00 0.00 0.00 87 1012.7
20260505090545 10 0 0.0 3.2 0.00 0.00 0.00 87 1012.7
20260505090100 10 0 0.0 3.2 0.00 0.00 0.00 87 1012.6
20260505085546 10 360 0.0 3.2 0.00 0.00 0.00 88 1012.6
20260505085046 10 0 1.6 3.2 0.00 0.00 0.00 89 1012.5
20260505084554 10 360 0.0 3.2 0.00 0.00 0.00 89 1012.5
20260505084047 10 0 0.0 3.2 0.00 0.00 0.00 90 1012.5
20260505083549 10 0 0.0 3.2 0.00 0.00 0.00 88 1012.4
20260505083056 10 0 0.0 3.2 0.00 0.00 0.00 88 1012.3
20260505082546 10 360 0.0 3.2 0.00 0.00 0.00 88 1012.3
20260505082049 10 360 0.0 1.6 0.00 0.00 0.00 86 1012.2
20260505081557 10 360 0.0 1.6 0.00 0.00 0.00 85 1012.2
20260505081046 10 0 0.0 3.2 0.00 0.00 0.00 85 1012.2
20260505080545 10 360 0.0 3.2 0.00 0.00 0.00 86 1012.2
20260505080054 10 0 1.6 3.2 0.00 0.00 0.00 86 1012.2
20260505075549 10 360 0.0 1.6 0.00 0.00 0.00 85 1012.2
20260505075049 10 0 0.0 1.6 0.00 0.00 0.00 84 1012.1
20260505074552 10 0 0.0 1.6 0.00 0.00 0.00 84 1012.1
20260505074048 10 0 0.0 1.6 0.00 0.00 0.00 84 1012.1
20260505073550 10 0 0.0 1.6 0.00 0.00 0.00 84 1012.2
20260505073053 10 0 0.0 1.6 0.00 0.00 0.00 85 1012.2
20260505072551 10 0 0.0 1.6 0.00 0.00 0.00 85 1012.2
20260505072048 11 0 0.0 3.2 0.00 0.00 0.00 85 1012.3
20260505071554 11 0 0.0 3.2 0.00 0.00 0.00 86 1012.3
20260505071048 11 360 0.0 3.2 0.00 0.00 0.00 86 1012.4
20260505070549 11 0 0.0 3.2 0.00 0.00 0.00 86 1012.3
20260505070051 11 0 0.0 3.2 0.00 0.00 0.00 86 1012.4
20260505065549 11 360 0.0 3.2 0.00 0.00 0.00 86 1012.5
20260505065046 11 0 0.0 1.6 0.00 0.00 0.00 84 1012.5
20260505064554 11 0 0.0 1.6 0.00 0.00 0.00 84 1012.5
20260505064046 11 0 0.0 0.0 0.00 0.00 0.00 85 1012.4
20260505063546 11 0 0.0 0.0 0.00 0.00 0.00 85 1012.4
20260505063052 11 0 0.0 0.0 0.00 0.00 0.00 85 1012.4
20260505062550 11 0 0.0 0.0 0.00 0.00 0.00 84 1012.4
20260505062048 11 0 0.0 4.8 0.00 0.00 0.00 83 1012.3
20260505061552 11 0 0.0 4.8 0.00 0.00 0.00 84 1012.3
20260505061049 11 360 1.6 4.8 0.00 0.00 0.00 84 1012.2
20260505060548 11 360 0.0 4.8 0.00 0.00 0.00 84 1012.3
20260505060056 11 360 1.6 4.8 0.00 0.00 0.00 83 1012.3
20260505055549 11 360 0.0 1.6 0.00 0.00 0.00 82 1012.2
20260505055049 12 0 0.0 1.6 0.00 0.00 0.00 81 1012.2
20260505054554 12 0 0.0 3.2 0.00 0.00 0.00 82 1012.1
20260505054048 12 0 0.0 3.2 0.00 0.00 0.00 81 1012.2
20260505053549 12 360 0.0 3.2 0.00 0.00 0.00 81 1012.2
20260505053105 12 0 0.0 4.8 0.00 0.00 0.00 82 1012.2
20260505052545 12 0 1.6 4.8 0.00 0.00 0.00 82 1012.1
20260505052046 12 0 0.0 3.2 0.00 0.00 0.00 82 1012.0
20260505051553 12 360 0.0 3.2 0.00 0.00 0.00 80 1011.9
20260505051050 12 360 0.0 3.2 0.00 0.00 0.00 81 1011.9